Probability
0 0 0 0 0 0 0 0 0 0 0 0 0 0 0 0 0 0 0 0 0 0 0 0 0 0 0 0 0 0 0 0 0 0 0 0 0 0 0 0 0 0 0 0 0 0 0 0 0
0 0 0 0 0 0 0 0 0 0 0 0 0 0 0 0 0 0 0 0 0 0 0 0 0 0 0 0 0 0 0 0 0 0 0 0 0 0 0 0 0 0 0 0 0 0 0 0 0
0 0 0 0 0 0 0 0 0 0 0 0 0 0 0 0 0 0 0 0 0 0 0 0 0 0 0 0 0 0 0 0 0 0 0 0 0 0 0 0 0 0 0 0 0 0 0 0 0
0 0 0 0 0 0 0 0 0 0 0 0 0 0 0 0 0 0 0 0 0 0 0 0 0 0 0 0 0 0 0 0 0 0 0 0 0 0 0 0 0 0 0 0 0 0 0 0 0
0 0 0 0 0 0 0 0 0 0 0 0 0 0 0 0 0 0 0 0 0 0 0 0 0 0 0 0 0 0 0 0 0 0 0 0 0 0 0 0 0 0 0 0 0 0 0 0 0
0 0 0 0 0 0 0 0 0 0 0 0 0 0 0 0 0 0 0 0 0 0 0 0 0 0 0 0 0 0 0 0 0 0 0 0 0 0 0 0 0 0 0 0 0 0 0 0 0
0 0 0 0 0 0 0 0 0 0 0 0 0 0 0 0 0 0 0 0 0 0 0 0 0 0 0 0 0 0 0 0 0 0 0 0 0 0 0 0 0 0 0 0 0 0 0 0 0
0 0 0 0 0 0 0 0 0 0 0 0 0 0 0 0 0 0 0 0 0 0 0 0 0 0 0 0 0 0 0 0 0 0 0 0 0 0 0 0 0 0 0 0 0 0 0 0 0
0 0 0 0 0 0 0 0 0 0 0 0 0 0 0 0 0 0 0 0 0 0 0 0 0 0 0 0 0 0 0 0 0 0 0 0 0 0 0 0 0 0 0 0 0 0 0 0 0
0 0 0 0 0 0 0 0 0 0 0 0 0 0 0 0 0 0 0 0 0 0 0 0 0 0 0 0 0 0 0 0 0 0 0 0 0 0 0 0 0 0 0 0 0 0 0 0 0
0 0 0 0 0 0 0 0 0 0 0 0 0 0 0 0 0 0 0 0 0 0 0 0 0 0 0 0 0 0 0 0 0 0 0 0 0 0 0 0 0 0 0 0 0 0 0 0 0
0 0 0 0 0 0 0 0 0 0 0 0 0 0 0 0 0 0 0 0 0 0 0 0 0 0 0 0 0 0 0 0 0 0 0 0 0 0 0 0 0 0 0 0 0 0 0 0 0
0 0 0 0 0 0 0 0 0 0 0 0 0 0 0 0 0 0 0 0 0 0 0 0 0 0 0 0 0 0 0 0 0 0 0 0 0 0 0 0 0 0 0 0 0 0 0 0 0
0 0 0 0 0 0 0 0 0 0 0 0 0 0 0 0 0 0 0 0 0 0 0 0 0 0 0 0 0 0 0 0 0 0 0 0 0 0 0 0 0 0 0 0 0 0 0 0 0
0 0 0 0 0 0 0 0 0 0 0 0 0 0 0 0 0 0 0 0 0 0 0 0 0 0 0 0 0 0 0 0 0 0 0 0 0 0 0 0 0 0 0 0 0 0 0 0 0
0 0 0 0 0 0 0 0 0 0 0 0 0 0 0 0 0 0 0 0 0 0 0 0 0 0 0 0 0 0 0 0 0 0 0 0 0 0 0 0 0 0 0 0 0 0 0 0 0
0 0 0 0 0 0 0 0 0 0 0 0 0 0 0 0 0 0 0 0 0 0 0 0 0 0 0 0 0 0 0 0 0 0 0 0 0 0 0 0 0 0 0 0 0 0 0 0 0
0 0 0 0 0 0 0 0 0 0 0 0 0 0 0 0 0 0 0 0 0 0 0 0 0 0 0 0 0 0 0 0 0 0 0 0 0 0 0 0 0 0 0 0 0 0 0 0 0
0 0 0 0 0 0 0 0 0 0 0 0 0 0 0 0 0 0 0 0 0 0 0 0 0 0 0 0 0 0 0 0 0 0 0 0 0 0 0 0 0 0 0 0 0 0 0 0 0
0 0 0 0 0 0 0 0 0 0 0 0 0 0 0 0 0 0 0 0 0 0 0 0 0 0 0 0 0 0 0 0 0 0 0 0 0 0 0 0 0 0 0 0 0 0 0 0 0
0 0 0 0 0 0 0 0 0 0 0 0 0 0 0 0 0 0 0 0 0 0 0 0 0 0 0 0 0 0 0 0 0 0 0 0 0 0 0 0 0 0 0 0 0 0 0 0 0
0 0 0 0 0 0 0 0 0 0 0 0 0 0 0 0 0 0 0 0 0 0 0 0 0 0 0 0 0 0 0 0 0 0 0 0 0 0 0 0 0 0 0 0 0 0 0 0 0
0 0 0 0 0 0 0 0 0 0 0 0 0 0 0 0 0 0 0 0 0 0 0 0 0 0 0 0 0 0 0 0 0 0 0 0 0 0 0 0 0 0 0 0 0 0 0 0 0
0 0 0 0 0 0 0 0 0 0 0 0 0 0 0 0 0 0 0 0 0 0 0 0 0 0 0 0 0 0 0 0 0 0 0 0 0 0 0 0 0 0 0 0 0 0 0 0 0
0 0 0 0 0 0 0 0 0 0 0 0 0 0 0 0 0 0 0 0 0 0 0 0 0 0 0 0 0 0 0 0 0 0 0 0 0 0 0 0 0 0 0 0 0 0 0 0 0
0 0 0 0 0 0 0 0 0 0 0 0 0 0 0 0 0 0 0 0 0 0 0 0 0 0 0 0 0 0 0 0 0 0 0 0 0 0 0 0 0 0 0 0 0 0 0 0 0
0 0 0 0 0 0 0 0 0 0 0 0 0 0 0 0 0 0 0 0 0 0 0 0 0 0 0 0 0 0 0 0 0 0 0 0 0 0 0 0 0 0 0 0 0 0 0 0 0
0 0 0 0 0 0 0 0 0 0 0 0 0 0 0 0 0 0 0 0 0 0 0 0 0 0 0 0 0 0 0 0 0 0 0 0 0 0 0 0 0 0 0 0 0 0 0 0 0
0 0 0 0 0 0 0 0 0 0 0 0 0 0 0 0 0 0 0 0 0 0 0 0 0 0 0 0 0 0 0 0 0 0 0 0 0 0 0 0 0 0 0 0 0 0 0 0 0
0 0 0 0 0 0 0 0 0 0 0 0 0 0 0 0 0 0 0 0 0 0 0 0 0 0 0 0 0 0 0 0 0 0 0 0 0 0 0 0 0 0 0 0 0 0 0 0 0
Wind_Speed
4 2 2 4 7 5 1 3 2 2 2 1 2 6 8 6 4 2 0 8 6 9 9 12 17 15 14 13 11 12 11 11 10 10 10 10 10 10 10 10 10 11 11 12 12 12 12 12 12
1 1 4 6 6 2 3 3 4 4 3 3 3 3 3 1 1 2 2 7 7 10 9 8 17 16 15 13 12 12 11 10 10 10 10 10 10 10 10 10 10 10 10 11 11 11 11 11 11
0 3 5 5 4 5 4 4 5 2 1 3 3 2 2 3 1 3 4 9 8 9 8 10 18 16 15 14 13 12 11 11 10 10 9 9 9 9 9 9 9 9 10 10 10 10 10 10 10
2 4 5 5 2 4 4 3 3 1 1 2 4 2 0 0 1 2 7 10 10 8 7 10 18 16 15 15 14 13 12 11 10 9 9 9 8 8 8 8 8 8 8 9 9 9 9 9 9
4 5 5 2 2 3 3 2 2 2 2 2 4 4 1 1 1 5 9 10 11 9 7 8 17 16 16 15 14 13 11 11 10 10 9 8 8 7 7 6 6 7 7 7 8 8 8 8 8
5 5 4 1 3 3 2 1 2 2 2 2 5 5 2 1 3 5 7 8 9 9 7 7 16 16 15 15 14 12 11 11 10 9 8 8 7 6 6 5 5 5 5 6 6 7 7 7 7
5 4 3 2 2 3 2 0 2 2 2 3 6 5 2 1 3 6 6 7 7 7 7 5 7 10 14 14 14 13 11 10 10 9 8 7 6 5 5 4 3 3 3 4 4 4 5 5 6
4 5 2 1 1 2 3 0 1 2 2 1 4 6 5 3 6 7 7 6 6 6 6 5 5 6 7 8 12 12 11 10 9 9 8 7 6 4 4 3 2 1 1 2 2 3 4 5 6
4 5 1 2 3 2 1 1 1 1 2 1 0 2 1 6 9 8 6 5 6 7 5 5 5 6 6 6 8 9 10 9 8 7 8 6 3 2 2 3 3 2 2 2 3 4 5 5 5
4 3 4 3 3 2 1 1 1 1 0 1 1 0 3 5 8 9 8 10 10 11 9 6 6 6 6 5 5 4 4 4 4 3 4 3 3 2 2 3 4 4 3 3 4 5 5 3 2
3 5 3 3 2 2 1 2 1 2 4 6 7 5 5 5 6 8 8 9 11 11 10 8 7 6 6 4 4 3 2 3 3 4 4 3 3 2 1 1 1 2 2 1 3 3 1 1 2
2 3 3 2 1 2 2 2 2 5 8 5 6 5 6 7 8 9 9 8 8 9 11 10 8 7 6 5 4 4 3 3 3 3 5 3 2 2 2 2 2 2 1 2 2 2 3 3 3
2 3 2 3 3 3 3 4 4 6 6 1 2 5 7 7 7 5 5 5 7 10 11 10 9 8 7 5 4 4 4 4 4 3 3 4 3 3 3 2 2 2 2 2 2 2 3 3 3
2 2 3 4 3 3 5 5 3 9 3 3 4 6 6 6 6 4 5 6 8 9 11 10 10 9 7 6 5 4 4 3 3 3 3 4 3 3 3 2 2 2 2 2 2 3 3 3 3
1 2 6 4 2 3 2 6 8 7 4 5 6 5 5 4 4 5 5 6 7 8 9 10 10 9 8 7 6 4 3 3 3 3 3 3 3 3 3 2 2 2 2 2 1 2 1 2 2
3 3 4 6 1 1 4 9 9 2 6 7 6 6 5 4 4 4 4 4 5 6 8 9 9 9 8 6 5 3 3 3 2 2 2 2 3 3 2 2 1 1 1 1 1 1 1 2 2
3 1 4 7 2 1 3 8 8 2 6 8 7 7 6 5 3 2 1 2 4 6 8 9 8 9 8 6 5 4 3 3 2 2 2 2 2 2 2 1 1 1 1 0 0 0 1 2 3
4 3 4 5 4 1 5 11 12 4 6 9 8 7 7 7 5 2 1 1 3 5 7 8 8 7 7 6 5 4 4 3 2 2 2 3 2 3 2 2 1 2 1 1 1 1 1 1 2
4 4 6 7 5 3 9 13 15 9 7 9 9 9 9 8 3 2 2 3 4 5 7 7 8 7 7 5 4 4 3 2 2 2 3 3 3 3 3 2 2 2 2 1 1 1 1 2 2
3 4 6 8 4 4 7 12 13 10 9 11 12 13 12 8 5 4 3 3 4 5 6 7 8 8 6 5 4 3 4 3 3 2 3 4 3 3 3 3 2 2 2 2 2 1 1 1 2
5 6 7 7 5 4 5 10 9 7 5 6 8 9 10 12 10 8 6 4 5 6 7 7 7 7 7 7 5 5 4 3 2 2 2 3 3 3 3 3 3 2 2 1 1 1 1 1 2
7 8 7 5 3 5 2 8 10 7 8 7 8 8 10 9 9 8 7 6 6 5 5 7 7 7 7 7 7 6 4 3 2 2 2 2 3 3 3 3 3 2 2 1 1 0 1 1 1
8 2 3 2 3 4 3 5 11 6 9 10 9 10 10 10 11 10 9 7 6 6 6 6 7 6 6 6 7 7 5 4 3 2 3 2 3 3 3 3 3 2 1 1 1 1 0 1 2
5 5 4 4 3 4 5 6 11 7 8 8 5 7 9 10 9 8 7 6 5 5 6 6 7 6 6 6 6 7 8 6 5 3 2 1 1 2 3 2 2 2 1 1 1 1 1 2 2
5 5 2 4 1 7 3 4 13 12 8 8 9 7 9 10 10 10 10 9 8 8 7 7 8 6 6 6 6 6 7 7 6 5 3 2 1 1 1 1 1 1 1 1 1 1 2 2 3
7 10 8 6 5 5 2 8 12 10 7 7 7 5 8 10 10 11 11 11 10 9 8 8 8 7 7 7 6 6 6 4 4 4 3 3 2 1 1 0 0 1 1 1 1 1 2 2 3
8 6 6 5 2 4 7 8 13 7 5 4 2 3 7 10 11 11 10 10 10 10 10 9 9 7 7 7 6 6 6 5 5 4 3 2 2 2 1 1 1 1 2 2 2 2 3 3 4
7 9 6 5 4 5 6 6 7 9 7 6 4 4 6 7 9 9 10 10 9 9 8 8 8 8 7 7 6 5 5 5 5 4 4 3 2 2 1 1 2 2 3 3 3 3 4 4 5
6 5 6 6 5 5 4 8 8 7 7 7 7 6 7 9 11 11 10 9 8 7 8 8 8 7 7 7 6 6 5 5 4 4 3 3 2 2 2 2 3 3 4 4 3 4 5 5 6
7 9 9 7 6 5 4 10 7 5 7 6 7 5 6 8 8 8 8 8 9 9 9 9 8 8 8 7 6 6 5 5 4 4 3 3 3 3 3 3 3 4 4 4 5 6 6 6 7
Wind_Direction
349 9 59 56 57 56 194 241 222 244 242 219 140 143 147 154 159 175 285 145 142 148 167 174 163 160 156 150 145 138 129 123 118 112 107 100 93 87 81 75 71 66 62 60 58 55 54 54 54
352 52 56 62 87 101 257 235 215 220 203 118 91 112 124 146 150 137 143 168 150 152 162 168 165 162 159 154 150 143 135 129 124 119 113 105 97 89 82 77 72 68 64 61 59 57 55 55 53
160 53 82 77 114 174 213 219 212 240 177 140 107 86 145 152 154 180 176 158 143 152 158 170 166 164 162 157 154 148 142 137 133 125 117 109 100 92 84 78 73 69 65 61 59 56 55 54 52
81 49 57 79 172 214 225 235 201 182 119 116 129 116 263 37 229 179 140 144 142 152 157 172 167 167 165 161 158 151 146 144 140 132 124 114 104 96 88 81 75 70 66 62 59 55 53 49 47
61 75 66 60 253 255 247 253 190 191 173 136 134 146 216 3 66 124 139 146 148 152 159 174 169 170 168 165 163 157 154 152 146 140 132 122 113 105 97 89 81 73 65 59 54 52 49 45 41
59 67 88 185 281 290 277 235 154 188 167 141 139 152 229 39 118 139 143 145 149 152 158 172 175 174 171 170 167 164 163 160 156 150 143 135 128 123 118 105 92 78 65 56 50 44 40 36 32
100 96 137 185 287 306 320 322 164 164 163 192 158 145 269 298 134 130 127 129 138 148 155 174 177 174 174 174 172 169 171 168 163 161 154 147 143 143 134 122 108 85 60 46 38 31 24 20 17
117 102 108 185 220 273 315 359 138 158 173 125 146 156 216 202 123 109 101 114 135 153 163 175 176 169 168 172 174 173 175 173 170 167 159 155 157 153 143 128 135 120 40 12 4 360 356 359 359
87 78 152 209 200 256 316 57 9 114 113 67 227 202 206 121 120 115 115 133 159 174 179 180 177 168 162 165 176 174 177 178 175 167 161 151 132 119 131 167 209 245 270 294 317 334 340 357 353
88 128 218 219 203 222 268 203 261 107 84 277 280 215 110 132 144 152 165 174 181 187 189 186 179 171 163 167 165 163 165 167 158 148 148 138 144 160 164 211 230 252 280 296 304 318 340 1 338
137 181 225 248 226 216 236 244 212 170 235 224 217 204 161 163 170 178 185 186 191 189 189 188 182 173 166 162 156 154 150 150 154 157 155 152 153 163 171 200 265 276 283 294 305 320 320 298 280
163 226 218 244 222 204 220 238 235 208 228 233 218 181 172 178 191 195 196 194 187 186 194 190 182 174 170 161 160 158 156 159 165 174 169 161 166 186 195 206 227 237 233 244 260 270 277 278 271
203 253 241 249 254 239 239 238 240 246 242 245 146 159 187 196 209 218 213 196 187 193 194 190 182 180 170 161 165 164 168 174 179 180 180 175 180 198 203 212 216 227 226 229 242 254 266 272 274
234 262 291 280 259 238 224 251 233 253 217 182 183 194 205 211 218 219 210 202 196 195 193 187 185 181 169 169 170 172 175 177 177 185 189 187 188 191 196 210 218 227 226 229 234 248 261 270 274
42 342 320 289 247 249 197 275 240 245 166 198 208 211 214 223 226 225 222 210 199 193 186 186 184 176 172 172 173 168 170 169 175 184 188 188 186 187 188 201 224 237 231 235 250 267 266 276 282
57 28 308 295 276 218 164 264 270 225 179 214 219 221 225 232 232 243 242 221 194 177 175 180 179 172 171 167 164 157 158 158 165 164 167 179 179 172 173 187 220 228 183 182 235 268 286 287 291
30 301 268 297 282 178 205 257 277 181 193 223 225 225 229 235 238 247 257 210 179 170 165 166 165 165 162 151 141 130 125 126 126 122 121 130 136 145 147 155 177 123 108 79 343 354 277 295 304
229 232 254 266 284 220 245 259 271 248 216 231 229 228 230 229 228 219 175 132 137 144 148 150 146 147 139 127 116 106 98 92 88 91 91 90 89 97 106 102 83 83 84 50 29 345 317 291 302
183 208 251 259 264 252 254 263 271 263 229 233 228 222 223 226 217 173 136 119 116 122 134 144 144 144 140 134 132 128 121 106 86 74 73 76 80 87 96 95 77 73 79 61 34 20 355 335 342
198 242 265 281 274 231 270 274 268 254 231 223 219 216 212 207 195 182 165 146 138 138 138 140 145 147 148 139 130 124 123 110 93 78 66 61 70 79 92 95 88 78 77 54 44 48 19 338 9
213 215 239 260 311 312 309 296 285 279 248 245 228 213 201 196 192 184 174 166 149 149 151 147 145 143 137 129 114 99 87 79 74 65 57 38 60 74 85 91 93 84 89 75 40 73 98 307 318
236 225 223 249 287 290 335 295 287 276 284 260 237 214 203 195 183 180 177 171 167 161 147 138 137 135 135 137 138 138 137 138 142 128 98 58 55 65 76 88 91 89 87 68 2 76 176 190 280
211 207 188 228 223 285 280 255 281 295 278 268 242 219 206 194 183 182 179 172 162 153 146 138 131 128 132 134 138 130 123 126 122 109 97 73 52 58 69 83 84 79 73 53 11 354 238 208 224
146 84 63 49 75 274 235 213 277 256 244 271 265 221 203 189 181 173 163 153 150 147 144 141 135 130 133 132 133 135 136 138 134 130 120 97 67 54 55 77 79 76 66 21 323 284 266 243 240
128 114 8 330 321 252 239 221 254 256 252 254 265 238 199 182 175 170 169 170 167 164 161 153 145 141 142 138 138 142 144 147 149 151 151 146 129 99 40 63 60 47 351 310 295 280 277 258 250
176 158 173 212 235 279 271 240 257 266 275 274 264 232 184 180 180 181 181 177 174 172 168 161 156 150 152 148 146 144 145 145 149 154 155 162 170 186 190 145 311 302 301 298 289 274 270 259 258
151 192 173 146 206 267 270 278 296 288 289 302 301 197 189 187 185 184 180 179 177 177 176 170 162 157 159 157 148 148 150 151 154 154 154 163 181 192 188 208 268 286 285 281 278 265 271 269 260
154 149 124 150 200 246 272 267 255 287 297 306 282 236 212 191 186 185 184 184 182 179 172 168 166 164 162 159 159 156 158 158 156 155 167 179 191 192 205 244 264 277 281 279 273 269 268 268 266
138 150 153 158 175 184 251 265 233 247 274 281 273 243 212 197 194 191 189 183 176 169 169 171 170 162 162 164 160 154 160 158 158 168 182 188 198 210 228 246 260 271 276 276 271 270 272 268 270
170 173 155 169 213 197 207 265 268 259 274 266 269 249 215 203 196 189 181 174 175 178 178 177 174 172 171 165 160 162 162 160 168 184 197 198 212 227 237 249 261 268 270 269 266 271 273 268 269